sat.trackr.live / text

‹ back to catalog

STARLINK-32692

NORAD 62422 · 2024-249P

PAYLOAD ACTIVE UNKNOWN

§ Identity

Operator
Country
US
Launch date
2024-12-23
Launch site
AFETR
Launch vehicle
Mass (kg)
RCS (m²)

Purposes: comms

External: N2YO · Heavens-Above · Gunter

§ Orbital elements

Epoch: 2026-09-21T09:44:21.714432Z

Period
94.27 min
Inclination
43.0042°
Eccentricity
0.0002280
Mean motion
15.27592193 rev/d
Perigee alt
481.4 km
Apogee alt
484.6 km
Semi-major
6,861.1 km
B*
6.0832e-4
RAAN
296.7360°
Arg perigee
279.2674°
Mean anomaly
80.7920°
Rev number
9,765

§ Raw data

STARLINK-326921 62422U 24249P   26264.40580688  .00016521  00000+0  60832-3 0  99922 62422  43.0042 296.7360 0002280 279.2674  80.7920 15.27592193 97650

JSON: /api/v1/satellites/62422 · /tle

For live sub-satellite position, see the globe view (requires WebGL).

§ Visibility from observer

Set your observer location to see the next 7 days of passes ≥ 10°. The values pass through the URL so the page stays shareable.

No JS? Fill the form by hand. The geolocation button needs JavaScript.